• In Hungary
  • List of Countries
  • For 7 days
  • Water Temperature
  • Satellite Maps
  • Weather Map
  • News
  • Weather Widgets
  • user-avatar
    Login

    Hourly Weather Nyiregyhaza

    Today, 20 October, Saturday

    Time Temperature Precipitation Wind Pressure Humidity
    00:00 +12°C° 0 mm 3 mps 756 mmHg 72%
    01:00 +12°C° 0 mm 3 mps 756 mmHg 73%
    02:00 +12°C° 0 mm 3 mps 756 mmHg 74%
    03:00 +11°C° 0 mm 3 mps 756 mmHg 75%
    04:00 +11°C° 0 mm 3 mps 756 mmHg 76%
    05:00 +11°C° 0 mm 3 mps 756 mmHg 77%
    06:00 +11°C° 0 mm 3 mps 757 mmHg 78%
    07:00 +11°C° 0 mm 3 mps 757 mmHg 78%
    08:00 +12°C° 0 mm 3 mps 757 mmHg 72%
    09:00 +14°C° 0 mm 3 mps 757 mmHg 65%
    10:00 +17°C° 0 mm 3 mps 757 mmHg 59%
    11:00 +18°C° 0 mm 3 mps 757 mmHg 55%
    12:00 +19°C° 0 mm 3 mps 757 mmHg 52%
    13:00 +19°C° 0 mm 3 mps 756 mmHg 49%
    14:00 +19°C° 0 mm 3 mps 756 mmHg 52%
    15:00 +18°C° 0 mm 3 mps 756 mmHg 54%
    16:00 +17°C° 0 mm 3 mps 756 mmHg 57%
    17:00 +16°C° 0 mm 3 mps 756 mmHg 60%
    18:00 +14°C° 0 mm 3 mps 756 mmHg 64%
    19:00 +13°C° 0 mm 4 mps 756 mmHg 68%
    20:00 +13°C° 0 mm 3 mps 756 mmHg 69%
    21:00 +13°C° 0 mm 3 mps 756 mmHg 70%
    22:00 +12°C° 0 mm 3 mps 756 mmHg 71%
    23:00 +12°C° 0 mm 3 mps 756 mmHg 73%

    Tomorrow, 21 October, Sunday

    Time Temperature Precipitation Wind Pressure Humidity
    00:00 +12°C° 0 mm 3 mps 755 mmHg 74%
    01:00 +11°C° 0 mm 3 mps 755 mmHg 76%
    02:00 +11°C° 0 mm 3 mps 755 mmHg 77%
    03:00 +11°C° 0 mm 3 mps 755 mmHg 77%
    04:00 +10°C° 0 mm 3 mps 754 mmHg 78%
    05:00 +10°C° 0 mm 3 mps 754 mmHg 77%
    06:00 +11°C° 0 mm 4 mps 755 mmHg 75%
    07:00 +11°C° 0 mm 4 mps 755 mmHg 73%
    08:00 +12°C° 0.1 mm 4 mps 755 mmHg 70%
    09:00 +13°C° 0.1 mm 4 mps 755 mmHg 66%
    10:00 +14°C° 0.1 mm 5 mps 755 mmHg 62%
    11:00 +14°C° 0 mm 4 mps 756 mmHg 61%
    12:00 +15°C° 0 mm 4 mps 756 mmHg 59%
    13:00 +17°C° 0 mm 4 mps 756 mmHg 57%
    14:00 +15°C° 0 mm 4 mps 756 mmHg 58%
    15:00 +15°C° 0 mm 4 mps 756 mmHg 59%
    16:00 +14°C° 0 mm 4 mps 756 mmHg 60%
    17:00 +14°C° 0 mm 4 mps 756 mmHg 61%
    18:00 +13°C° 0 mm 4 mps 757 mmHg 62%
    19:00 +12°C° 0 mm 4 mps 757 mmHg 64%
    20:00 +12°C° 0 mm 4 mps 757 mmHg 64%
    21:00 +12°C° 0 mm 4 mps 757 mmHg 65%
    22:00 +11°C° 0 mm 4 mps 758 mmHg 65%
    23:00 +11°C° 0 mm 4 mps 758 mmHg 65%

    Day after tomorrow, 22 October, Monday

    Time Temperature Precipitation Wind Pressure Humidity
    00:00 +11°C° 0 mm 4 mps 758 mmHg 65%
    01:00 +11°C° 0 mm 4 mps 758 mmHg 66%
    02:00 +10°C° 0 mm 3 mps 757 mmHg 67%
    03:00 +10°C° 0 mm 3 mps 757 mmHg 68%
    04:00 +9°C° 0 mm 3 mps 757 mmHg 70%
    05:00 +9°C° 0 mm 3 mps 757 mmHg 70%
    06:00 +9°C° 0 mm 3 mps 757 mmHg 70%
    07:00 +9°C° 0 mm 3 mps 758 mmHg 70%
    08:00 +11°C° 0 mm 3 mps 757 mmHg 64%
    09:00 +12°C° 0 mm 3 mps 757 mmHg 58%
    10:00 +14°C° 0 mm 3 mps 757 mmHg 53%
    11:00 +16°C° 0 mm 3 mps 757 mmHg 50%
    12:00 +17°C° 0 mm 3 mps 756 mmHg 47%
    13:00 +18°C° 0 mm 3 mps 756 mmHg 44%
    14:00 +17°C° 0 mm 2 mps 755 mmHg 47%
    15:00 +17°C° 0 mm 2 mps 755 mmHg 49%
    16:00 +16°C° 0 mm 2 mps 755 mmHg 51%
    17:00 +15°C° 0 mm 2 mps 755 mmHg 53%
    18:00 +14°C° 0 mm 2 mps 755 mmHg 56%
    19:00 +12°C° 0 mm 3 mps 755 mmHg 58%
    20:00 +11°C° 0 mm 3 mps 755 mmHg 59%
    21:00 +11°C° 0 mm 3 mps 755 mmHg 60%
    22:00 +10°C° 0 mm 3 mps 756 mmHg 60%
    23:00 +10°C° 0 mm 3 mps 756 mmHg 61%

    23 October, Tuesday

    Time Temperature Precipitation Wind Pressure Humidity
    00:00 +10°C° 0 mm 2 mps 756 mmHg 61%
    01:00 +10°C° 0 mm 2 mps 756 mmHg 61%
    02:00 +10°C° 0 mm 3 mps 755 mmHg 60%
    03:00 +10°C° 0 mm 3 mps 755 mmHg 60%
    04:00 +9°C° 0 mm 3 mps 755 mmHg 59%
    05:00 +9°C° 0 mm 3 mps 755 mmHg 60%
    06:00 +9°C° 0 mm 3 mps 756 mmHg 60%
    07:00 +9°C° 0 mm 3 mps 756 mmHg 61%
    08:00 +10°C° 0 mm 3 mps 756 mmHg 57%
    09:00 +11°C° 0 mm 3 mps 756 mmHg 54%
    10:00 +12°C° 0 mm 4 mps 756 mmHg 50%
    11:00 +13°C° 0 mm 4 mps 755 mmHg 48%
    12:00 +14°C° 0 mm 4 mps 755 mmHg 46%
    13:00 +14°C° 0 mm 4 mps 755 mmHg 44%
    14:00 +13°C° 0 mm 4 mps 755 mmHg 48%
    15:00 +13°C° 0 mm 4 mps 755 mmHg 52%
    16:00 +12°C° 0 mm 4 mps 754 mmHg 56%
    17:00 +11°C° 0 mm 3 mps 754 mmHg 59%
    18:00 +10°C° 0 mm 3 mps 754 mmHg 62%
    19:00 +9°C° 0 mm 2 mps 754 mmHg 65%
    20:00 +8°C° 0 mm 2 mps 754 mmHg 65%
    21:00 +9°C° 0 mm 1 mps 754 mmHg 65%
    22:00 +9°C° 0 mm 1 mps 753 mmHg 66%
    23:00 +7°C° 0 mm 2 mps 752 mmHg 66%

    24 October, Wednesday

    Time Temperature Precipitation Wind Pressure Humidity
    00:00 +6°C° 0 mm 4 mps 752 mmHg 66%
    01:00 +6°C° 0 mm 5 mps 751 mmHg 66%
    02:00 +6°C° 0.4 mm 5 mps 750 mmHg 67%
    03:00 +7°C° 0.4 mm 6 mps 749 mmHg 68%
    04:00 +6°C° 0.4 mm 7 mps 749 mmHg 69%
    05:00 +6°C° 1 mm 7 mps 748 mmHg 70%
    06:00 +8°C° 1 mm 7 mps 747 mmHg 72%
    07:00 +8°C° 1 mm 7 mps 747 mmHg 74%
    08:00 +9°C° 0.1 mm 7 mps 747 mmHg 71%
    09:00 +11°C° 0.1 mm 8 mps 746 mmHg 67%
    10:00 +12°C° 0.1 mm 8 mps 746 mmHg 64%
    11:00 +14°C° 0.5 mm 7 mps 746 mmHg 60%
    12:00 +14°C° 0.5 mm 7 mps 745 mmHg 56%
    13:00 +15°C° 0.5 mm 7 mps 745 mmHg 51%
    14:00 +14°C° 0.1 mm 6 mps 745 mmHg 52%
    15:00 +13°C° 0.1 mm 5 mps 745 mmHg 53%
    16:00 +13°C° 0.1 mm 4 mps 745 mmHg 53%
    17:00 +12°C° 0 mm 4 mps 746 mmHg 56%
    18:00 +10°C° 0 mm 4 mps 746 mmHg 59%
    19:00 +9°C° 0 mm 3 mps 747 mmHg 61%
    20:00 +9°C° 0 mm 3 mps 747 mmHg 62%
    21:00 +8°C° 0 mm 3 mps 748 mmHg 63%
    22:00 +7°C° 0 mm 3 mps 749 mmHg 64%
    23:00 +7°C° 0 mm 3 mps 749 mmHg 64%

    25 October, Thursday

    Time Temperature Precipitation Wind Pressure Humidity
    00:00 +5°C° 0 mm 3 mps 750 mmHg 64%
    01:00 +5°C° 0 mm 3 mps 750 mmHg 63%
    02:00 +5°C° 0 mm 3 mps 750 mmHg 63%
    03:00 +5°C° 0 mm 2 mps 751 mmHg 63%
    04:00 +5°C° 0 mm 2 mps 751 mmHg 63%
    05:00 +5°C° 0 mm 2 mps 751 mmHg 64%
    06:00 +5°C° 0 mm 2 mps 751 mmHg 66%
    07:00 +4°C° 0 mm 3 mps 752 mmHg 67%
    08:00 +7°C° 0 mm 3 mps 752 mmHg 62%
    09:00 +8°C° 0 mm 4 mps 752 mmHg 57%
    10:00 +11°C° 0 mm 4 mps 752 mmHg 52%
    11:00 +12°C° 0 mm 5 mps 751 mmHg 51%
    12:00 +12°C° 0 mm 5 mps 751 mmHg 49%
    13:00 +13°C° 0 mm 5 mps 750 mmHg 47%
    14:00 +13°C° 0 mm 5 mps 750 mmHg 51%
    15:00 +13°C° 0 mm 5 mps 750 mmHg 55%
    16:00 +14°C° 0 mm 5 mps 749 mmHg 59%
    17:00 +13°C° 0 mm 5 mps 749 mmHg 62%
    18:00 +13°C° 0 mm 5 mps 749 mmHg 65%
    19:00 +12°C° 0 mm 5 mps 749 mmHg 68%
    20:00 +12°C° 0 mm 5 mps 749 mmHg 69%
    21:00 +12°C° 0 mm 5 mps 749 mmHg 69%
    22:00 +10°C° 0 mm 5 mps 749 mmHg 69%
    23:00 +10°C° 0 mm 5 mps 749 mmHg 69%
    Show more